User: anonymous   Login
Location: Dunedin
(45.8670°S, 170.5000°E)
Time: 08:29:53
(UTC+13:00)
Language:

SJ-6B - Orbit

View from above orbital plane
View from above orbital plane
View from above satellite
View from above satellite

Ground track
Ground track

The orbit data is extracted from the following two-line orbital elements,

1 28415U 04035C   19082.12113049  .00000678  00000-0  48677-4 0  9990
2 28415  97.6731 121.9675 0053325  93.0453 267.6878 15.06645754795523
Epoch (UTC): 23 March 2019 02:54:25
Eccentricity: 0.0053325
inclination: 97.6731°
perigee height: 509 km
apogee height: 583 km
right ascension of ascending node: 121.9675°
argument of perigee: 93.0453°
revolutions per day: 15.06645754
mean anomaly at epoch: 267.6878°
orbit number at epoch: 79552

The dashed part of the orbit path shows where the satellite is in the earth's shadow,  

DLR